If you wish to contribute or participate in the discussions about articles you are invited to join SKYbrary as a registered user

 Actions

Teresina Airport

From SKYbrary Wiki

SBTE
Airport
ICAO: SBTE – IATA: THE
Summary
Name Teresina Airport
Region South America and Caribbean
Territory Brazil BR.gif
Location Teresina, Piaui
Serving Teresina
Elevation 66.751 m
219 ft66.751 m
Coordinates 5° 3' 38.02" S, 42° 49' 27.98" W
Runways
Designator Length Width Surface ROPS
2/20 2200 m7,217.848 ft
45 m147.638 ft
ASP yes/yes


METAR
Observation SBTE 201600Z 12005KT CAVOK 35/21 Q1007
Station Teresina Aeroporto
Date/Time 20 November 2019 16:00:00
Wind direction 120°
Wind speed 05 kts
Lowest cloud amount clouds and visibility OK
Temperature 35°C
Dew point 21°C
Humidity 44%
QNH 1007 hPa
Weather condition n/a

Teresina–Senador Petrônio Portella Airport is the airport serving Teresina, Brazil.

Climatology

Tropical savanna climate (Köppen climate classification Aw)

Maps

Terrain

Loading map...

Airport Layout

Loading map...


Accidents & Serious Incidents at or in vicinity of SBTE

None on SKYbrary